W0JRT-6 Weather Reports


Display with metric or nautical units.
time (UTC)temp
F
wind
direction
speed
MPH
gust
MPH
rain 1hr
in
rain 24hr
in
rain mn
in
humidity
%
barometer
mb
20260507155007 62 248 6.0 15.0 0.00 0.00 0.00 57 1010.6
20260507154001 61 305 5.0 10.0 0.00 0.00 0.00 55 1010.6
20260507153003 61 289 6.0 18.0 0.00 0.00 0.00 56 1010.9
20260507152002 60 289 5.0 10.0 0.00 0.00 0.00 56 1011.0
20260507151002 60 295 5.0 11.0 0.00 0.00 0.00 58 1011.1
20260507145002 60 181 5.0 12.0 0.00 0.00 0.00 60 1011.7
20260507144130 59 303 3.0 10.0 0.00 0.00 0.00 60 1011.8
20260507144010 59 303 3.0 10.0 0.00 0.00 0.00 60 1011.8
20260507143636 59 320 2.0 9.0 0.00 0.00 0.00 65 1011.9
20260507142957 59 320 2.0 9.0 0.00 0.00 0.00 65 1011.9
20260507142608 58 216 3.0 9.0 0.00 0.00 0.00 66 1012.3
20260507142001 58 216 3.0 9.0 0.00 0.00 0.00 66 1012.3
20260507141046 56 195 3.0 8.0 0.00 0.00 0.00 67 1012.4
20260507141000 56 195 3.0 8.0 0.00 0.00 0.00 67 1012.4
20260507140200 56 267 2.0 7.0 0.00 0.00 0.00 67 1012.8
20260507135959 56 267 2.0 7.0 0.00 0.00 0.00 67 1012.8
20260507135004 55 305 2.0 9.0 0.00 0.00 0.00 70 1013.3
20260507133959 54 313 2.0 7.0 0.00 0.00 0.00 74 1013.3
20260507133114 54 292 2.0 6.0 0.00 0.00 0.00 72 1013.7
20260507132957 54 292 2.0 6.0 0.00 0.00 0.00 72 1013.7
20260507132007 53 241 1.0 5.0 0.00 0.00 0.00 76 1014.1
20260507131003 52 208 1.0 6.0 0.00 0.00 0.00 76 1014.7
20260507125752 50 331 1.0 4.0 0.00 0.00 0.00 81 1015.5
20260507125011 50 331 1.0 4.0 0.00 0.00 0.00 81 1015.5
20260507124002 49 194 0.0 4.0 0.00 0.00 0.00 83 1015.7
20260507123005 48 289 1.0 4.0 0.00 0.00 0.00 84 1015.8
20260507122004 47 289 1.0 3.0 0.00 0.00 0.00 85 1016.0
20260507121002 46 239 0.0 2.0 0.00 0.00 0.00 87 1016.1
20260507114957 44 337 0.0 1.0 0.00 0.00 0.00 91 1016.5
20260507112004 41 150 0.0 0.0 0.00 0.00 0.00 94 1016.7
20260507111003 41 150 0.0 0.0 0.00 0.00 0.00 93 1016.6
20260507110002 41 150 0.0 0.0 0.00 0.00 0.00 94 1016.5
20260507105001 41 150 0.0 0.0 0.00 0.00 0.00 94 1016.6
20260507104002 40 150 0.0 0.0 0.00 0.00 0.00 93 1016.5
20260507103002 40 150 0.0 0.0 0.00 0.00 0.00 92 1016.5
20260507102002 41 150 0.0 0.0 0.00 0.00 0.00 92 1016.5
20260507100959 41 150 0.0 0.0 0.00 0.00 0.00 91 1016.5
20260507095009 42 150 0.0 0.0 0.00 0.00 0.00 89 1016.5
20260507094011 43 150 0.0 0.0 0.00 0.00 0.00 88 1016.5
20260507092010 43 150 0.0 0.0 0.00 0.00 0.00 88 1016.6
20260507091000 42 188 0.0 1.0 0.00 0.00 0.00 90 1016.7
20260507085959 42 265 0.0 0.0 0.00 0.00 0.00 89 1016.7
20260507084959 42 265 0.0 0.0 0.00 0.00 0.00 89 1016.7
20260507084009 42 265 0.0 0.0 0.00 0.00 0.00 89 1016.7
20260507083000 42 265 0.0 0.0 0.00 0.00 0.00 90 1016.8
20260507082003 42 265 0.0 0.0 0.00 0.00 0.00 88 1016.8
20260507074958 43 265 0.0 0.0 0.00 0.00 0.00 86 1016.6
20260507071003 44 265 0.0 0.0 0.00 0.00 0.00 83 1016.6
20260507064957 45 265 0.0 0.0 0.00 0.00 0.00 82 1016.7
20260507063007 46 265 0.0 1.0 0.00 0.00 0.00 82 1016.8
20260507062005 46 302 0.0 0.0 0.00 0.00 0.00 84 1016.8
20260507060002 47 302 0.0 1.0 0.00 0.00 0.00 82 1016.8
20260507055006 47 302 0.0 0.0 0.00 0.00 0.00 82 1016.8
20260507054009 47 327 0.0 0.0 0.00 0.00 0.00 85 1017.0
20260507053002 46 327 0.0 0.0 0.00 0.00 0.00 88 1017.1
20260507051958 46 327 0.0 0.0 0.00 0.00 0.00 91 1017.0
20260507051008 45 327 0.0 0.0 0.00 0.00 0.00 91 1017.0
20260507050004 45 327 0.0 0.0 0.00 0.00 0.00 92 1016.8
20260507045004 45 327 0.0 0.0 0.00 0.00 0.02 92 1017.0
20260507044003 45 327 0.0 0.0 0.00 0.00 0.02 92 1017.0
20260507041959 45 327 0.0 0.0 0.00 0.00 0.02 92 1017.1
20260507040958 44 327 0.0 0.0 0.00 0.00 0.02 91 1017.1
20260507040004 44 327 0.0 0.0 0.00 0.00 0.02 92 1017.1
20260507035009 44 327 0.0 0.0 0.00 0.00 0.02 92 1017.3
20260507034006 43 327 0.0 0.0 0.00 0.00 0.02 89 1017.3
20260507033004 43 327 0.0 0.0 0.00 0.00 0.02 88 1017.2
20260507032008 43 327 0.0 0.0 0.00 0.00 0.02 86 1017.2
20260507031006 43 327 0.0 0.0 0.00 0.00 0.02 84 1016.8
20260507030000 44 327 0.0 0.0 0.00 0.00 0.02 83 1016.6
20260507024958 44 327 0.0 0.0 0.00 0.00 0.02 82 1016.4
20260507024010 45 327 0.0 0.0 0.00 0.00 0.02 81 1016.1
20260507021011 47 327 0.0 0.0 0.00 0.00 0.02 73 1015.1
20260507014959 49 327 0.0 0.0 0.00 0.00 0.02 68 1014.4
20260507014419 51 327 0.0 0.0 0.00 0.00 0.02 71 1014.0
20260507014011 51 327 0.0 0.0 0.00 0.00 0.02 71 1014.0
20260507013038 52 327 0.0 0.0 0.00 0.00 0.02 72 1013.7
20260507013000 52 327 0.0 0.0 0.00 0.00 0.02 72 1013.7
20260507012005 54 327 0.0 0.0 0.00 0.00 0.02 65 1013.2
20260507010959 56 327 0.0 0.0 0.00 0.00 0.02 60 1012.9
20260507005958 58 327 0.0 0.0 0.00 0.00 0.02 50 1012.6
20260507003958 60 327 0.0 0.0 0.00 0.00 0.02 40 1012.5
20260507002001 60 327 0.0 5.0 0.00 0.00 0.02 39 1012.5
20260507000959 60 322 1.0 7.0 0.00 0.00 0.02 35 1012.4
20260506234007 61 323 3.0 6.0 0.00 0.00 0.02 34 1012.5
20260506233000 61 341 5.0 10.0 0.00 0.00 0.02 37 1012.4
20260506232009 60 306 6.0 10.0 0.00 0.00 0.02 34 1012.4
20260506230959 60 319 6.0 12.0 0.00 0.00 0.02 32 1012.4
20260506230007 61 312 5.0 10.0 0.00 0.00 0.02 34 1012.4
20260506225006 61 319 4.0 8.0 0.00 0.00 0.02 35 1012.3
20260506224010 61 313 5.0 8.0 0.00 0.00 0.02 36 1012.2
20260506222959 61 326 2.0 5.0 0.00 0.00 0.02 36 1012.2
20260506221958 61 337 3.0 8.0 0.00 0.00 0.02 35 1012.3
20260506215957 61 7 3.0 7.0 0.00 0.00 0.02 33 1012.6
20260506215008 61 336 4.0 9.0 0.00 0.00 0.02 36 1012.7
20260506213957 60 336 7.0 15.0 0.00 0.00 0.02 36 1012.7
20260506213007 61 331 5.0 11.0 0.00 0.00 0.02 36 1012.9
20260506212009 62 302 4.0 10.0 0.00 0.00 0.02 38 1013.1
20260506211007 61 324 5.0 12.0 0.00 0.00 0.02 36 1013.2
20260506205004 61 8 5.0 10.0 0.00 0.00 0.02 35 1013.6
20260506204001 61 348 4.0 12.0 0.00 0.00 0.02 36 1013.9
20260506201957 61 305 5.0 15.0 0.00 0.00 0.02 35 1014.1
20260506200959 60 334 7.0 15.0 0.00 0.00 0.02 38 1014.2
20260506194001 59 341 6.0 13.0 0.00 0.00 0.02 37 1014.4
20260506193000 59 331 4.0 9.0 0.00 0.00 0.02 38 1014.5
20260506192002 59 322 4.0 9.0 0.00 0.00 0.02 34 1014.6
20260506191004 59 310 5.0 10.0 0.00 0.00 0.02 35 1014.6
20260506190007 59 323 6.0 11.0 0.00 0.00 0.02 33 1014.6
20260506185000 59 333 5.0 11.0 0.00 0.00 0.02 45 1014.6
20260506184004 59 333 6.0 15.0 0.00 0.00 0.02 43 1014.8
20260506181009 58 322 5.0 11.0 0.00 0.00 0.02 40 1015.1
20260506180005 58 334 3.0 9.0 0.00 0.00 0.02 38 1015.2
20260506175003 57 1 5.0 10.0 0.00 0.00 0.02 42 1015.2
20260506174001 57 348 5.0 11.0 0.00 0.00 0.02 40 1015.2
20260506172008 57 317 5.0 9.0 0.00 0.00 0.02 40 1015.2
20260506165006 56 331 4.0 7.0 0.00 0.00 0.02 40 1015.3
20260506161004 56 327 5.0 9.0 0.00 0.00 0.02 42 1015.3